When you browse on this site, cookies collect data to enhance your experience and personalize the content and advertising you see.
Visit our Privacy Policy to learn more. By continuing to use the site, you agree to this use of cookies and data.
  • In Romania
  • List of Countries
  • For 7 days
  • Water Temperature
  • Satellite Maps
  • Weather Map
  • Weather Widgets
  • user-avatar
    Login

    Hourly Weather Igls

    Today, 25 June, Tuesday

    Time Temperature Precipitation Wind Pressure Humidity
    00:00 +19°C° 0 mm 1 mps 690 mmHg 86%
    01:00 +18°C° 0 mm 2 mps 690 mmHg 83%
    02:00 +18°C° 0 mm 2 mps 689 mmHg 84%
    03:00 +18°C° 0 mm 2 mps 689 mmHg 84%
    04:00 +18°C° 0 mm 2 mps 689 mmHg 85%
    05:00 +20°C° 0 mm 2 mps 690 mmHg 80%
    06:00 +23°C° 0 mm 1 mps 690 mmHg 74%
    07:00 +25°C° 0 mm 1 mps 691 mmHg 69%
    08:00 +27°C° 0 mm 1 mps 691 mmHg 58%
    09:00 +30°C° 0 mm 1 mps 692 mmHg 47%
    10:00 +31°C° 0 mm 0 mps 692 mmHg 37%
    11:00 +33°C° 0 mm 1 mps 692 mmHg 34%
    12:00 +34°C° 0 mm 1 mps 692 mmHg 31%
    13:00 +36°C° 0 mm 2 mps 693 mmHg 28%
    14:00 +35°C° 0 mm 2 mps 692 mmHg 29%
    15:00 +35°C° 0 mm 2 mps 692 mmHg 30%
    16:00 +35°C° 0 mm 2 mps 692 mmHg 32%
    17:00 +32°C° 0 mm 2 mps 692 mmHg 43%
    18:00 +30°C° 0 mm 1 mps 692 mmHg 54%
    19:00 +28°C° 0 mm 1 mps 692 mmHg 65%
    20:00 +26°C° 0 mm 1 mps 692 mmHg 69%
    21:00 +24°C° 0 mm 1 mps 692 mmHg 73%
    22:00 +22°C° 0 mm 1 mps 692 mmHg 77%
    23:00 +22°C° 0 mm 1 mps 692 mmHg 75%

    Tomorrow, 26 June, Wednesday

    Time Temperature Precipitation Wind Pressure Humidity
    00:00 +21°C° 0 mm 1 mps 692 mmHg 73%
    01:00 +21°C° 0 mm 1 mps 692 mmHg 71%
    02:00 +21°C° 0 mm 1 mps 692 mmHg 67%
    03:00 +21°C° 0 mm 1 mps 692 mmHg 64%
    04:00 +20°C° 0 mm 1 mps 691 mmHg 61%
    05:00 +23°C° 0 mm 1 mps 692 mmHg 57%
    06:00 +25°C° 0 mm 1 mps 693 mmHg 52%
    07:00 +27°C° 0 mm 1 mps 693 mmHg 48%
    08:00 +29°C° 0 mm 1 mps 694 mmHg 42%
    09:00 +32°C° 0 mm 1 mps 694 mmHg 35%
    10:00 +34°C° 0 mm 1 mps 694 mmHg 29%
    11:00 +35°C° 0 mm 2 mps 694 mmHg 27%
    12:00 +36°C° 0 mm 2 mps 694 mmHg 25%
    13:00 +37°C° 0 mm 2 mps 694 mmHg 23%
    14:00 +36°C° 0 mm 2 mps 694 mmHg 25%
    15:00 +36°C° 0 mm 2 mps 694 mmHg 27%
    16:00 +36°C° 0 mm 3 mps 694 mmHg 29%
    17:00 +34°C° 0 mm 2 mps 693 mmHg 39%
    18:00 +31°C° 0 mm 2 mps 693 mmHg 50%
    19:00 +29°C° 0 mm 1 mps 693 mmHg 61%
    20:00 +27°C° 0 mm 1 mps 692 mmHg 65%
    21:00 +25°C° 0 mm 1 mps 692 mmHg 69%
    22:00 +23°C° 0 mm 1 mps 692 mmHg 73%
    23:00 +22°C° 0 mm 1 mps 692 mmHg 72%

    Day after tomorrow, 27 June, Thursday

    Time Temperature Precipitation Wind Pressure Humidity
    00:00 +22°C° 0 mm 1 mps 692 mmHg 71%
    01:00 +22°C° 0 mm 1 mps 692 mmHg 71%
    02:00 +21°C° 0 mm 1 mps 692 mmHg 70%
    03:00 +21°C° 0 mm 1 mps 691 mmHg 69%
    04:00 +21°C° 0 mm 1 mps 691 mmHg 68%
    05:00 +23°C° 0 mm 1 mps 691 mmHg 63%
    06:00 +25°C° 0 mm 1 mps 692 mmHg 59%
    07:00 +27°C° 0 mm 1 mps 692 mmHg 55%
    08:00 +29°C° 0 mm 1 mps 692 mmHg 48%
    09:00 +31°C° 0 mm 1 mps 693 mmHg 41%
    10:00 +34°C° 0 mm 2 mps 693 mmHg 35%
    11:00 +34°C° 0 mm 2 mps 693 mmHg 34%
    12:00 +35°C° 0 mm 2 mps 692 mmHg 33%
    13:00 +35°C° 0 mm 3 mps 692 mmHg 32%
    14:00 +34°C° 0.1 mm 3 mps 692 mmHg 37%
    15:00 +33°C° 0.1 mm 3 mps 692 mmHg 42%
    16:00 +33°C° 0.1 mm 3 mps 691 mmHg 47%
    17:00 +30°C° 0.2 mm 3 mps 691 mmHg 56%
    18:00 +28°C° 0.2 mm 2 mps 690 mmHg 66%
    19:00 +27°C° 0.2 mm 1 mps 690 mmHg 75%
    20:00 +25°C° 0.2 mm 1 mps 690 mmHg 81%
    21:00 +23°C° 0.2 mm 1 mps 690 mmHg 86%
    22:00 +21°C° 0.2 mm 1 mps 690 mmHg 92%
    23:00 +20°C° 0 mm 1 mps 690 mmHg 93%

    28 June, Friday

    Time Temperature Precipitation Wind Pressure Humidity
    00:00 +20°C° 0 mm 1 mps 690 mmHg 94%
    01:00 +20°C° 0 mm 1 mps 690 mmHg 96%
    02:00 +19°C° 0 mm 1 mps 690 mmHg 96%
    03:00 +19°C° 0 mm 1 mps 689 mmHg 96%
    04:00 +19°C° 0 mm 1 mps 689 mmHg 96%
    05:00 +20°C° 0 mm 1 mps 689 mmHg 95%
    06:00 +22°C° 0 mm 1 mps 689 mmHg 93%
    07:00 +23°C° 0 mm 1 mps 689 mmHg 91%
    08:00 +24°C° 0.1 mm 1 mps 690 mmHg 83%
    09:00 +25°C° 0.1 mm 1 mps 690 mmHg 75%
    10:00 +27°C° 0.1 mm 2 mps 690 mmHg 67%
    11:00 +28°C° 0 mm 2 mps 690 mmHg 59%
    12:00 +29°C° 0 mm 2 mps 690 mmHg 50%
    13:00 +30°C° 0 mm 3 mps 690 mmHg 42%
    14:00 +30°C° 0 mm 3 mps 690 mmHg 41%
    15:00 +29°C° 0 mm 3 mps 689 mmHg 41%
    16:00 +29°C° 0 mm 3 mps 689 mmHg 40%
    17:00 +27°C° 0 mm 2 mps 689 mmHg 48%
    18:00 +26°C° 0 mm 2 mps 689 mmHg 56%
    19:00 +24°C° 0 mm 2 mps 689 mmHg 64%
    20:00 +22°C° 0 mm 1 mps 689 mmHg 72%
    21:00 +20°C° 0 mm 1 mps 689 mmHg 79%
    22:00 +16°C° 0 mm 1 mps 688 mmHg 87%
    23:00 +16°C° 0 mm 1 mps 688 mmHg 87%

    29 June, Saturday

    Time Temperature Precipitation Wind Pressure Humidity
    00:00 +16°C° 0 mm 1 mps 688 mmHg 87%
    01:00 +15°C° 0 mm 1 mps 688 mmHg 86%
    02:00 +15°C° 0 mm 1 mps 688 mmHg 86%
    03:00 +15°C° 0 mm 1 mps 687 mmHg 85%
    04:00 +14°C° 0 mm 0 mps 687 mmHg 85%
    05:00 +16°C° 0 mm 0 mps 688 mmHg 76%
    06:00 +19°C° 0 mm 0 mps 688 mmHg 68%
    07:00 +21°C° 0 mm 0 mps 689 mmHg 59%
    08:00 +25°C° 0 mm 1 mps 689 mmHg 52%
    09:00 +27°C° 0 mm 1 mps 689 mmHg 44%
    10:00 +29°C° 0 mm 1 mps 689 mmHg 36%
    11:00 +30°C° 0 mm 1 mps 689 mmHg 33%
    12:00 +31°C° 0 mm 2 mps 689 mmHg 30%
    13:00 +32°C° 0 mm 2 mps 689 mmHg 27%
    14:00 +32°C° 0 mm 2 mps 689 mmHg 28%
    15:00 +32°C° 0 mm 2 mps 689 mmHg 30%
    16:00 +31°C° 0 mm 2 mps 689 mmHg 32%
    17:00 +30°C° 0 mm 2 mps 689 mmHg 43%
    18:00 +28°C° 0 mm 1 mps 688 mmHg 54%
    19:00 +26°C° 0 mm 1 mps 688 mmHg 65%
    20:00 +24°C° 0 mm 1 mps 688 mmHg 69%
    21:00 +22°C° 0 mm 1 mps 688 mmHg 73%
    22:00 +20°C° 0 mm 1 mps 688 mmHg 77%
    23:00 +20°C° 0 mm 1 mps 688 mmHg 79%

    30 June, Sunday

    Time Temperature Precipitation Wind Pressure Humidity
    00:00 +20°C° 0 mm 1 mps 688 mmHg 81%
    01:00 +20°C° 0 mm 1 mps 688 mmHg 83%
    02:00 +20°C° 0 mm 1 mps 688 mmHg 83%
    03:00 +19°C° 0 mm 1 mps 687 mmHg 83%
    04:00 +19°C° 0 mm 1 mps 687 mmHg 82%
    05:00 +21°C° 0 mm 1 mps 688 mmHg 76%
    06:00 +23°C° 0 mm 1 mps 688 mmHg 70%
    07:00 +23°C° 0 mm 0 mps 689 mmHg 64%
    08:00 +28°C° 0 mm 1 mps 689 mmHg 54%
    09:00 +30°C° 0 mm 1 mps 690 mmHg 44%
    10:00 +32°C° 0 mm 1 mps 690 mmHg 34%
    11:00 +33°C° 0 mm 1 mps 690 mmHg 31%
    12:00 +35°C° 0 mm 2 mps 690 mmHg 28%
    13:00 +35°C° 0 mm 2 mps 690 mmHg 25%
    14:00 +35°C° 0 mm 2 mps 690 mmHg 26%
    15:00 +35°C° 0 mm 2 mps 689 mmHg 27%
    16:00 +34°C° 0 mm 2 mps 689 mmHg 28%
    17:00 +31°C° 0 mm 2 mps 689 mmHg 38%
    18:00 +30°C° 0 mm 2 mps 689 mmHg 48%
    19:00 +28°C° 0 mm 1 mps 688 mmHg 58%
    20:00 +26°C° 0 mm 1 mps 688 mmHg 61%
    21:00 +24°C° 0 mm 1 mps 688 mmHg 65%
    22:00 +21°C° 0 mm 1 mps 688 mmHg 69%
    23:00 +21°C° 0 mm 1 mps 688 mmHg 68%
    Show more